Location: Millersville
(37.4328°N, 89.7995°W)
Time: 05:25:58
(UTC+00:00)

Daily predictions for brighter satellites

Satellite Brightness Start Highest point End
(mag) Time Altitude Azimuth Time Altitude Azimuth Time Altitude Azimuth
PSLV R/B 4.0 00:00:43 10° SE 00:04:23 34° ENE 00:08:02 10° N
RESURS DK-1 3.2 00:02:42 10° N 00:05:59 27° NE 00:05:59 27° NE
Okean 2 Rocket 3.8 00:02:59 10° SSE 00:06:51 31° E 00:08:01 27° ENE
BREEZE M DEB (TANK) 4.5 00:08:08 10° S 00:09:18 12° SSE 00:09:18 12° SSE
Nadezhda 4 Rocket 4.4 00:04:48 10° N 00:10:36 38° ENE 00:16:19 10° SE
Geosat FO 4.1 00:09:48 10° SSE 00:12:42 75° WSW 00:15:36 10° NNW
ISS -2.4 00:09:44 10° W 00:12:49 33° NNW 00:14:17 22° NNE
ATLAS 2A CENTAUR R/B 4.4 00:00:27 10° SW 00:13:21 28° S 00:17:17 14° SE
CZ-2D R/B 3.3 00:10:13 10° SSE 00:14:15 67° ENE 00:18:23 10° N
SJ 16-02 1.7 00:10:18 10° S 00:14:17 38° E 00:15:05 34° ENE
Spot 4 Rocket 3.9 00:11:28 10° SSE 00:16:28 61° ENE 00:21:29 10° N
Timation 2 Rocket 4.4 00:10:07 10° SSW 00:16:56 73° WNW 00:23:50 10° NNE
Cosmos 1536 Rocket 4.3 00:16:09 10° N 00:19:15 32° NE 00:19:15 32° NE
Helios 1A Rocket 2.4 00:17:58 18° N 00:20:25 82° WNW 00:23:47 10° SSW
ATLAS 5 CENTAUR R/B 2.0 00:19:32 10° NW 00:24:18 84° WSW 00:30:12 10° SSE
USA 215 3.8 00:18:26 10° SSE 00:24:50 58° SW 00:31:16 10° NW
Cosmos 1833 Rocket 3.8 00:23:07 10° NW 00:28:27 44° WSW 00:33:45 10° S
Cosmos 371 Rocket 3.4 00:26:56 10° S 00:31:29 46° ESE 00:31:39 46° E
Aureole 3 Rocket 3.6 00:28:38 10° SSW 00:31:40 38° W 00:34:06 13° NNW
MOS 1 Rocket 4.0 00:27:49 10° S 00:31:55 48° W 00:36:08 10° NNW
Cosmos 2058 2.6 00:30:02 10° N 00:34:00 76° E 00:37:57 10° S
Cosmos 1656 Rocket 4.4 00:29:57 10° SSE 00:33:51 32° SE 00:33:51 32° SE
Cosmos 304 Rocket 3.6 00:35:42 10° S 00:40:20 61° ESE 00:40:27 60° E
NOAA 6 3.9 00:36:34 10° SSE 00:41:40 68° ENE 00:46:47 10° N
Cosmos 1763 Rocket 3.6 00:37:25 10° NNW 00:42:36 73° WSW 00:47:41 10° S
Cosmos 540 Rocket 3.4 00:40:14 10° NNW 00:45:23 82° WSW 00:50:28 10° SSE
Cosmos 1464 Rocket 4.2 00:42:22 10° SSW 00:48:40 74° W 00:54:58 10° N
Cosmos 2151 Rocket 4.0 00:44:29 10° SSW 00:48:54 63° W 00:52:22 16° N
OAO 3 Rocket 3.2 00:44:42 10° WSW 00:49:16 62° S 00:49:21 61° SSE
Cosmos 1400 Rocket 2.9 00:46:00 10° SSW 00:49:28 66° WSW 00:49:28 66° WSW
Cosmos 2251 Rocket 4.1 00:46:07 10° SSW 00:51:16 55° WNW 00:55:23 16° N
SL-19 R/B 4.3 00:49:48 10° S 00:55:03 68° WSW 01:00:14 10° NNW
Sich 1 Rocket 3.6 00:51:18 10° S 00:55:44 84° WSW 00:55:44 84° WSW
Cosmos 2034 Rocket 3.9 00:53:46 10° S 00:59:56 89° E 01:06:12 10° N
Geosat 3.9 01:00:32 70° N 01:00:32 70° N 01:05:04 10° NNW
USA 281 3.9 01:07:16 37° NNE 01:07:16 37° NNE 01:11:40 10° N
Meteor 2-1 Rocket 4.2 01:00:24 10° S 01:06:14 85° E 01:07:22 60° NNE
Okean 1 Rocket 3.6 01:03:00 10° SSW 01:06:43 55° SW 01:06:43 55° SW
Cosmos 2278 Rocket 4.4 01:24:01 10° WSW 01:28:12 21° NW 01:32:24 10° N
Cosmos 2082 Rocket 2.7 01:23:42 10° NNW 01:28:04 53° NW 01:28:04 53° NW
Cosmos 2344 4.2 01:39:07 10° NNW 01:45:44 53° NNE 01:45:44 53° NNE
SJ 16-02 4.1 01:49:45 10° WSW 01:51:41 16° WNW 01:51:41 16° WNW
SL-16 R/B 4.4 09:37:22 10° SSE 09:41:41 23° E 09:45:59 10° NE
Cosmos 1802 Rocket 3.9 10:06:58 41° N 10:09:22 82° E 10:15:34 10° S
SJ 16-02 3.2 10:18:05 17° NNE 10:20:22 27° ENE 10:24:00 10° SE
Cosmos 2237 Rocket 3.7 10:24:59 23° N 10:24:59 23° N 10:27:13 10° N
Cosmos 2278 Rocket 2.7 10:25:23 43° SSW 10:25:23 43° SSW 10:29:19 10° S
Cosmos 2056 Rocket 3.7 10:21:55 25° S 10:25:03 75° ESE 10:30:27 10° NNE
Cosmos 1943 Rocket 3.0 10:28:04 34° SSW 10:28:04 34° SSW 10:31:17 10° S
USA 229 DEB 3.9 10:23:40 10° SSW 10:29:10 55° ESE 10:35:18 10° NE
USA 229 4.0 10:23:51 10° SSW 10:29:23 54° ESE 10:35:30 10° NE
Cosmos 2016 Rocket 3.9 10:25:48 10° N 10:32:10 80° W 10:38:26 10° S
Cosmos 407 Rocket 4.0 10:33:47 42° SSW 10:33:47 42° SSW 10:37:18 10° S
Cosmos 2369 Rocket 4.4 10:30:58 10° N 10:35:21 22° NE 10:39:43 10° ESE
Cosmos 1932 4.4 10:36:40 42° NW 10:39:03 75° WSW 10:45:31 10° SSE
USA 267 3.4 10:33:17 10° NE 10:39:33 50° NW 10:40:53 44° WNW
Cosmos 1782 Rocket 3.4 10:42:02 74° SW 10:42:02 74° SW 10:46:04 10° S
IRS-1D 4.0 10:38:13 10° NNE 10:43:04 58° ESE 10:47:54 10° S
Cosmos 1371 Rocket 3.9 10:41:01 21° SSW 10:44:32 76° WNW 10:49:53 10° NNE
Iridium 4 Rocket 3.6 10:47:39 41° SSW 10:47:39 41° SSW 10:50:28 10° S
FengYun 1-2 T 4.2 10:44:09 10° NNE 10:49:46 88° WNW 10:55:24 10° SSW
Cosmos 1300 Rocket 4.2 10:51:06 38° SSW 10:51:06 38° SSW 10:53:57 10° S
Cosmos 1869 3.9 10:47:38 19° NNE 10:49:53 47° E 10:53:16 10° SSE
ATLAS 3B R/B 3.0 10:42:35 10° SSW 10:49:57 83° ESE 10:57:48 10° NNE
Cosmos 371 Rocket 4.0 10:45:35 12° N 10:49:59 53° ENE 10:54:41 10° SE
Cosmos 1812 4.0 10:53:55 12° NNE 10:56:12 29° E 10:58:46 10° SE
Chandra Rocket (1) 3.9 10:54:13 24° SW 10:56:48 37° S 11:09:13 10° ESE
CENTAUR R/B 4.4 10:49:25 10° NNW 10:57:20 42° NE 11:06:05 10° ESE
Cosmos 304 Rocket 4.1 10:53:23 13° N 10:57:38 66° ENE 11:02:21 10° SSE
CZ-4 R/B 4.0 10:53:35 10° NNE 10:58:24 74° ESE 11:03:05 10° S
Cosmos 1378 Rocket 4.0 11:00:32 10° S 11:04:43 61° E 11:08:56 10° NNE
Cosmos 2242 Rocket 3.4 11:04:17 10° SSW 11:08:38 71° W 11:13:03 10° N
NOAA 12 4.1 11:05:46 10° NNE 11:11:07 89° E 11:16:26 10° SSW
Cosmos 1656 Rocket 3.7 11:06:00 10° NNW 11:11:43 84° ENE 11:17:22 10° SSE
ATLAS CENTAUR Rocket 4.5 11:09:07 10° S 11:11:43 15° SE 11:15:27 10° ESE
USA 234 3.7 11:06:47 10° ESE 11:13:09 57° NE 11:19:11 12° NW
In-Cosmos 22 Rocket 4.2 11:09:00 10° SSW 11:14:48 75° W 11:20:37 10° N
CZ-3 R/B 3.0 11:03:33 13° WSW 11:16:53 46° S 11:22:27 10° ESE
Cosmos 1624 Rocket 4.5 11:14:55 17° SW 11:18:22 36° WNW 11:23:07 10° N
Cosmos 2251 Rocket 4.0 11:18:51 19° NW 11:22:04 38° W 11:26:58 10° SSW
Cosmos 1891 Rocket 4.5 11:18:12 10° N 11:24:32 89° E 11:30:42 10° S
Cosmos 2061 Rocket 4.2 11:19:29 10° NNW 11:25:18 44° W 11:31:07 10° SSW
SL-16 R/B 2.4 11:19:58 10° SW 11:25:23 45° WNW 11:30:51 10° N
H-2A R/B 3.6 11:31:32 10° SW 11:33:43 21° SSE 11:38:28 10° ESE
Cosmos 1452 Rocket 3.6 11:28:55 10° SSW 11:34:08 83° ESE 11:39:23 10° NNE
Aureole 3 Rocket 4.1 11:30:10 10° NNW 11:35:49 70° W 11:43:38 10° S
CZ-2C R/B 4.5 11:37:27 10° NW 11:37:35 10° NW 11:37:35 10° NW
Cosmos 1464 Rocket 4.1 11:40:45 10° N 11:46:54 83° E 11:53:01 10° S
Cosmos 1331 Rocket 4.1 11:42:37 10° SSW 11:47:46 57° WNW 11:52:56 10° N
SKYMED 2 4.2 11:51:57 10° SSW 11:55:53 34° W 11:59:52 10° NNW
